KI5QWQ Weather Reports


time (UTC)temp
C
wind
direction
speed
KPH
gust
KPH
rain 1hr
cm
rain 24hr
cm
rain mn
cm
humidity
%
barometer
mb
20260902021129 -17 211 0.0 3.2 0.00 0.00 0.00 1016.2
20260902020625 -17 211 0.0 3.2 0.00 0.00 0.00 1016.1
20260902020120 -17 211 0.0 3.2 0.00 0.00 0.00 1016.1
20260902015616 -17 211 0.0 3.2 0.00 0.00 0.00 1016.0
20260902015112 -17 211 0.0 3.2 0.00 0.00 0.00 1016.0
20260902014607 -17 0.0 0.0 0.00 0.00 0.00 1016.0
20260902014103 -17 0.0 0.0 0.00 0.00 0.00 1016.0
20260902013602 -17 0.0 0.0 0.00 0.00 0.00 1015.9
20260902013058 -17 0.0 0.0 0.00 0.00 0.00 1015.9
20260902012553 -17 0.0 0.0 0.00 0.00 0.00 1015.6
20260902012048 -17 0.0 0.0 0.00 0.00 0.00 1015.6
20260902011544 -17 0.0 0.0 0.00 0.00 0.00 1015.4
20260902011043 -17 0.0 0.0 0.00 0.00 0.00 1015.4
20260902010543 -17 0.0 0.0 0.00 0.00 0.00 1015.4
20260902010039 -17 0.0 0.0 0.00 0.00 0.00 1015.3
20260902005536 -17 0.0 0.0 0.00 0.00 0.00 1015.4
20260902005033 -17 0.0 0.0 0.00 0.00 0.00 1015.5
20260902004532 -17 0.0 0.0 0.00 0.00 0.00 1015.6
20260902004028 -17 0.0 0.0 0.00 0.00 0.00 1015.6
20260902003523 -17 0.0 0.0 0.00 0.00 0.00 1015.5
20260902003018 -17 0.0 0.0 0.00 0.00 0.00 1015.6
20260902002514 -17 193 0.0 4.8 0.00 0.00 0.00 1015.6
20260902002009 -17 193 0.0 4.8 0.00 0.00 0.00 1015.5
20260902001503 -17 193 0.0 4.8 0.00 0.00 0.00 1015.6
20260902000958 -17 193 0.0 4.8 0.00 0.00 0.00 1015.6
20260902000453 -17 193 0.0 4.8 0.00 0.00 0.00 1015.5
20260901235948 -17 193 0.0 4.8 0.00 0.00 0.00 1015.2
20260901235443 -17 193 0.0 4.8 0.00 0.00 0.00 1015.3
20260901234938 -17 193 0.0 4.8 0.00 0.00 0.00 1015.2
20260901234432 -17 193 0.0 4.8 0.00 0.00 0.00 1015.4
20260901233927 -17 193 0.0 4.8 0.00 0.00 0.00 1015.4
20260901233422 -17 193 0.0 4.8 0.00 0.00 0.00 1015.4
20260901232919 -17 193 0.0 4.8 0.00 0.00 0.00 1015.5
20260901232418 -17 30 3.2 4.8 0.00 0.00 0.00 1015.5
20260901231914 -17 208 3.2 3.2 0.00 0.00 0.00 1015.4
20260901231410 -17 208 3.2 3.2 0.00 0.00 0.00 1015.3
20260901230907 -17 171 4.8 9.7 0.00 0.00 0.00 1015.5
20260901230406 -17 171 4.8 9.7 0.00 0.00 0.00 1015.6
20260901225901 -17 171 4.8 9.7 0.00 0.00 0.00 1015.5
20260901225401 -17 171 4.8 9.7 0.00 0.00 0.00 1015.5
20260901224855 -17 179 1.6 6.4 0.00 0.00 0.00 1015.7
20260901224346 -17 185 3.2 4.8 0.00 0.00 0.00 1015.5
20260901223842 -17 359 3.2 6.4 0.00 0.00 0.00 1015.5
20260901223338 -17 233 1.6 4.8 0.00 0.00 0.00 1015.5
20260901222833 -17 8 3.2 6.4 0.00 0.00 0.00 1015.4
20260901222330 -17 109 3.2 6.4 0.00 0.00 0.00 1015.4
20260901221825 -17 96 4.8 4.8 0.00 0.00 0.00 1015.4
20260901221320 -17 18 3.2 8.0 0.00 0.00 0.00 1015.7
20260901220820 -17 18 3.2 8.0 0.00 0.00 0.00 1015.6
20260901220319 -17 18 3.2 8.0 0.00 0.00 0.00 1015.5
20260901215818 -17 159 1.6 4.8 0.00 0.00 0.00 1015.6
20260901215317 -17 174 0.0 3.2 0.00 0.00 0.00 1015.6
20260901214816 -17 174 0.0 3.2 0.00 0.00 0.00 1015.6
20260901214315 -17 166 3.2 6.4 0.00 0.00 0.00 1015.6
20260901213810 -17 166 3.2 6.4 0.00 0.00 0.00 1015.7
20260901213310 -17 166 3.2 6.4 0.00 0.00 0.00 1015.7
20260901212804 -17 166 3.2 6.4 0.00 0.00 0.00 1015.6
20260901212300 -17 166 3.2 6.4 0.00 0.00 0.00 1015.6
20260901211755 -17 166 3.2 6.4 0.00 0.00 0.00 1015.6
20260901211251 -17 166 3.2 6.4 0.00 0.00 0.00 1015.9
20260901210747 -17 166 3.2 6.4 0.00 0.00 0.00 1016.0
20260901210243 -17 166 3.2 6.4 0.00 0.00 0.00 1015.9
20260901205738 -17 252 3.2 6.4 0.00 0.00 0.00 1016.0
20260901205238 -17 253 4.8 4.8 0.00 0.00 0.00 1016.0
20260901204734 -17 178 4.8 8.0 0.00 0.00 0.00 1016.1
20260901204230 -17 179 3.2 4.8 0.00 0.00 0.00 1016.2
20260901203724 -17 8 4.8 8.0 0.00 0.00 0.00 1016.1
20260901203219 -17 151 4.8 8.0 0.00 0.00 0.00 1016.2
20260901202718 -17 151 4.8 8.0 0.00 0.00 0.00 1016.2
20260901202214 -17 232 4.8 8.0 0.00 0.00 0.00 1016.5
20260901201710 -17 26 6.4 8.0 0.00 0.00 0.00 1016.4
20260901201209 -17 335 3.2 6.4 0.00 0.00 0.00 1016.4
20260901200709 -17 355 3.2 4.8 0.00 0.00 0.00 1016.5
20260901200204 -17 355 3.2 4.8 0.00 0.00 0.00 1016.6
20260901195701 -17 355 3.2 4.8 0.00 0.00 0.00 1016.8
20260901195156 -17 135 3.2 4.8 0.00 0.00 0.00 1016.7
20260901194652 -17 269 4.8 6.4 0.00 0.00 0.00 1017.0
20260901194147 -17 311 3.2 6.4 0.00 0.00 0.00 1017.0
20260901193643 -17 311 3.2 6.4 0.00 0.00 0.00 1017.0
20260901193137 -17 160 0.0 3.2 0.00 0.00 0.00 1017.0
20260901192631 -17 258 1.6 3.2 0.00 0.00 0.00 1017.2
20260901192126 -17 353 0.0 3.2 0.00 0.00 0.00 1017.3
20260901191622 -17 152 6.4 9.7 0.00 0.00 0.00 1017.3
20260901191119 -17 264 0.0 4.8 0.00 0.00 0.00 1017.6
20260901190614 -17 57 3.2 8.0 0.00 0.00 0.00 1017.5
20260901190113 -17 57 3.2 8.0 0.00 0.00 0.00 1017.6
20260901185612 -17 180 0.0 1.6 0.00 0.00 0.00 1017.6
20260901185110 -17 178 3.2 6.4 0.00 0.00 0.00 1017.9
20260901184607 -17 168 3.2 8.0 0.00 0.00 0.00 1017.8
20260901184102 -17 356 0.0 4.8 0.00 0.00 0.00 1017.9
20260901183602 -17 331 4.8 8.0 0.00 0.00 0.00 1017.9
20260901183057 -17 324 1.6 6.4 0.00 0.00 0.00 1018.3
20260901182553 -17 182 6.4 6.4 0.00 0.00 0.00 1018.3
20260901182048 -17 182 6.4 6.4 0.00 0.00 0.00 1018.3
20260901181547 -17 182 6.4 6.4 0.00 0.00 0.00 1018.4
20260901181047 -17 182 6.4 6.4 0.00 0.00 0.00 1018.7
20260901180545 -17 182 6.4 6.4 0.00 0.00 0.00 1018.6
20260901180040 -17 182 6.4 6.4 0.00 0.00 0.00 1018.7
20260901175534 -17 110 4.8 8.0 0.00 0.00 0.00 1018.9
20260901175028 -17 110 4.8 8.0 0.00 0.00 0.00 1019.0
20260901174524 -17 110 4.8 8.0 0.00 0.00 0.00 1019.1
20260901174020 -17 110 4.8 8.0 0.00 0.00 0.00 1019.2
20260901173515 -17 110 4.8 8.0 0.00 0.00 0.00 1019.2
20260901173011 -17 110 4.8 8.0 0.00 0.00 0.00 1019.1
20260901172506 -17 110 4.8 8.0 0.00 0.00 0.00 1019.3
20260901172004 -17 110 4.8 8.0 0.00 0.00 0.00 1019.3
20260901171503 -17 110 4.8 8.0 0.00 0.00 0.00 1019.5
20260901171002 -17 110 4.8 8.0 0.00 0.00 0.00 1019.6
20260901170456 -17 0.0 0.0 0.00 0.00 0.00 1019.8
20260901165955 -17 0.0 0.0 0.00 0.00 0.00 1019.9
20260901165451 -17 0.0 0.0 0.00 0.00 0.00 1019.7
20260901164947 -17 0.0 0.0 0.00 0.00 0.00 1019.9
20260901164442 -17 0.0 0.0 0.00 0.00 0.00 1019.8
20260901163937 -17 154 0.0 0.0 0.00 0.00 0.00 1019.9
20260901163432 -17 154 0.0 0.0 0.00 0.00 0.00 1019.9
20260901162930 -17 154 0.0 0.0 0.00 0.00 0.00 1020.1
20260901162426 -17 154 0.0 0.0 0.00 0.00 0.00 1020.1
20260901161920 -17 154 0.0 0.0 0.00 0.00 0.00 1020.3
20260901161419 -17 154 0.0 0.0 0.00 0.00 0.00 1020.3
20260901160914 -17 154 0.0 0.0 0.00 0.00 0.00 1020.2
20260901160411 -17 154 0.0 0.0 0.00 0.00 0.00 1020.3
20260901155910 -17 154 0.0 0.0 0.00 0.00 0.00 1020.3
20260901155404 -17 154 0.0 0.0 0.00 0.00 0.00 1020.4
20260901154901 -17 154 0.0 0.0 0.00 0.00 0.00 1020.3
20260901154400 -17 154 0.0 0.0 0.00 0.00 0.00 1020.3
20260901153855 -17 0.0 0.0 0.00 0.00 0.00 1020.1
20260901153355 -17 0.0 0.0 0.00 0.00 0.00 1020.3
20260901152854 -17 0.0 0.0 0.00 0.00 0.00 1020.3
20260901152349 -17 0.0 0.0 0.00 0.00 0.00 1020.3
20260901151843 -17 0.0 0.0 0.00 0.00 0.00 1020.1
20260901151338 -17 0.0 0.0 0.00 0.00 0.00 1020.2
20260901150837 -17 0.0 0.0 0.00 0.00 0.00 1020.2
20260901150335 -17 0.0 0.0 0.00 0.00 0.00 1020.3
20260901145833 -17 0.0 0.0 0.00 0.00 0.00 1020.4
20260901145327 -17 0.0 0.0 0.00 0.00 0.00 1020.2
20260901144822 -17 0.0 0.0 0.00 0.00 0.00 1020.5
20260901144318 -17 0.0 0.0 0.00 0.00 0.00 1020.5
20260901143814 -17 0.0 0.0 0.00 0.00 0.00 1020.5
20260901143310 -17 0.0 0.0 0.00 0.00 0.00 1020.7
20260901142806 -17 0.0 0.0 0.00 0.00 0.00 1020.7
20260901142306 -17 0.0 0.0 0.00 0.00 0.00 1020.7
20260901141800 -17 0.0 0.0 0.00 0.00 0.00 1020.7
20260901141255 -17 0.0 0.0 0.00 0.00 0.00 1020.6
20260901140754 -17 0.0 0.0 0.00 0.00 0.00 1020.8
20260901140252 -17 0.0 0.0 0.00 0.00 0.00 1020.7
20260901135748 -17 0.0 0.0 0.00 0.00 0.00 1020.8
20260901135247 -17 0.0 0.0 0.00 0.00 0.00 1020.7
20260901134744 -17 0.0 0.0 0.00 0.00 0.00 1020.8
20260901134243 -17 195 0.0 0.0 0.00 0.00 0.00 1020.7
20260901133742 -17 195 0.0 0.0 0.00 0.00 0.00 1020.6
20260901133237 -17 195 0.0 0.0 0.00 0.00 0.00 1020.6
20260901132735 -17 195 0.0 0.0 0.00 0.00 0.00 1020.7
20260901132231 -17 195 0.0 0.0 0.00 0.00 0.00 1020.6
20260901131725 -17 195 0.0 0.0 0.00 0.00 0.00 1020.5
20260901131224 -17 195 0.0 0.0 0.00 0.00 0.00 1020.5
20260901130720 -17 195 0.0 0.0 0.00 0.00 0.00 1020.5
20260901130219 -17 195 0.0 0.0 0.00 0.00 0.00 1020.2
20260901125717 -17 195 0.0 0.0 0.00 0.00 0.00 1020.2
20260901125212 -17 195 0.0 0.0 0.00 0.00 0.00 1020.2
20260901124707 -17 195 0.0 0.0 0.00 0.00 0.00 1020.1
20260901124207 -17 0.0 0.0 0.00 0.00 0.00 1020.2
20260901123706 -17 0.0 0.0 0.00 0.00 0.00 1020.1
20260901123202 -17 0.0 0.0 0.00 0.00 0.00 1020.0
20260901122700 -17 0.0 0.0 0.00 0.00 0.00 1019.9
20260901122155 -17 0.0 0.0 0.00 0.00 0.00 1019.8
20260901121649 -17 0.0 0.0 0.00 0.00 0.00 1019.8
20260901121144 -17 0.0 0.0 0.00 0.00 0.00 1019.6
20260901120638 -17 0.0 0.0 0.00 0.00 0.00 1019.5
20260901120133 -17 0.0 0.0 0.00 0.00 0.00 1019.4
20260901115629 -17 0.0 0.0 0.00 0.00 0.00 1019.7
20260901115125 -17 0.0 0.0 0.00 0.00 0.00 1019.6
20260901114622 -17 0.0 0.0 0.00 0.00 0.00 1019.7
20260901114120 -17 0.0 0.0 0.00 0.00 0.00 1019.8
20260901113619 -17 0.0 0.0 0.00 0.00 0.00 1019.7
20260901113114 -17 0.0 0.0 0.00 0.00 0.00 1019.7
20260901112609 -17 0.0 0.0 0.00 0.00 0.00 1019.6
20260901112104 -17 0.0 0.0 0.00 0.00 0.00 1019.7
20260901111603 -17 0.0 0.0 0.00 0.00 0.00 1019.7
20260901111101 -17 0.0 0.0 0.00 0.00 0.00 1019.6
20260901110557 -17 0.0 0.0 0.00 0.00 0.00 1019.6
20260901110053 -17 0.0 0.0 0.00 0.00 0.00 1019.6
20260901105549 -17 0.0 0.0 0.00 0.00 0.00 1019.6
20260901105048 -17 0.0 0.0 0.00 0.00 0.00 1019.4
20260901104545 -17 0.0 0.0 0.00 0.00 0.00 1019.4
20260901104040 -17 0.0 0.0 0.00 0.00 0.00 1019.4
20260901103534 -17 0.0 0.0 0.00 0.00 0.00 1019.5
20260901103030 -17 0.0 0.0 0.00 0.00 0.00 1019.4
20260901102530 -17 0.0 0.0 0.00 0.00 0.00 1019.4
20260901102024 -17 0.0 0.0 0.00 0.00 0.00 1019.4
20260901101520 -17 0.0 0.0 0.00 0.00 0.00 1019.2
20260901101019 -17 0.0 0.0 0.00 0.00 0.00 1019.3
20260901100514 -17 0.0 0.0 0.00 0.00 0.00 1019.2
20260901100014 -17 0.0 0.0 0.00 0.00 0.00 1019.3
20260901095512 -17 0.0 0.0 0.00 0.00 0.00 1019.4
20260901095010 -17 0.0 0.0 0.00 0.00 0.00 1019.2
20260901094505 -17 0.0 0.0 0.00 0.00 0.00 1019.2
20260901094004 -17 0.0 0.0 0.00 0.00 0.00 1019.3
20260901093504 -17 0.0 0.0 0.00 0.00 0.00 1019.3
20260901092959 -17 0.0 0.0 0.00 0.00 0.00 1019.5
20260901092454 -17 0.0 0.0 0.00 0.00 0.00 1019.3
20260901091945 -17 0.0 0.0 0.00 0.00 0.00 1019.3
20260901091440 -17 0.0 0.0 0.00 0.00 0.00 1019.5
20260901090935 -17 0.0 0.0 0.00 0.00 0.00 1019.5
20260901090435 -17 0.0 0.0 0.00 0.00 0.00 1019.4
20260901085930 -17 0.0 0.0 0.00 0.00 0.00 1019.3
20260901085426 -17 0.0 0.0 0.00 0.00 0.00 1019.5
20260901084922 -17 0.0 0.0 0.00 0.00 0.00 1019.1
20260901084418 -17 0.0 0.0 0.00 0.00 0.00 1019.3
20260901083914 -17 0.0 0.0 0.00 0.00 0.00 1019.2
20260901083408 -17 0.0 0.0 0.00 0.00 0.00 1019.2
20260901082906 -17 0.0 0.0 0.00 0.00 0.00 1019.3
20260901082401 -17 0.0 0.0 0.00 0.00 0.00 1019.1
20260901081856 -17 0.0 0.0 0.00 0.00 0.00 1019.0
20260901081352 -17 0.0 0.0 0.00 0.00 0.00 1019.0
20260901080851 -17 120 3.2 3.2 0.00 0.00 0.00 1019.2
20260901080346 -17 120 3.2 3.2 0.00 0.00 0.00 1019.3
20260901075840 -17 120 3.2 3.2 0.00 0.00 0.00 1019.2
20260901075336 -17 120 3.2 3.2 0.00 0.00 0.00 1019.2
20260901074830 -17 120 3.2 3.2 0.00 0.00 0.00 1019.2
20260901074325 -17 120 3.2 3.2 0.00 0.00 0.00 1019.3
20260901073821 -17 120 3.2 3.2 0.00 0.00 0.00 1019.3
20260901073315 -17 120 3.2 3.2 0.00 0.00 0.00 1019.2
20260901072811 -17 120 3.2 3.2 0.00 0.00 0.00 1019.3
20260901072309 -17 120 3.2 3.2 0.00 0.00 0.00 1019.1
20260901071801 -17 120 3.2 3.2 0.00 0.00 0.00 1019.4
20260901071259 -17 120 3.2 3.2 0.00 0.00 0.00 1019.4
20260901070758 -17 0.0 0.0 0.00 0.00 0.00 1019.4
20260901070254 -17 0.0 0.0 0.00 0.00 0.00 1019.5
20260901065753 -17 215 1.6 3.2 0.00 0.00 0.00 1019.3
20260901065249 -17 215 1.6 3.2 0.00 0.00 0.00 1019.3
20260901064745 -17 215 1.6 3.2 0.00 0.00 0.00 1019.4
20260901064241 -17 215 1.6 3.2 0.00 0.00 0.00 1019.2
20260901063738 -17 215 1.6 3.2 0.00 0.00 0.00 1019.2
20260901063233 -17 215 1.6 3.2 0.00 0.00 0.00 1019.1
20260901062730 -17 215 1.6 3.2 0.00 0.00 0.00 1019.1
20260901062225 -17 215 1.6 3.2 0.00 0.00 0.00 1018.9
20260901061721 -17 215 1.6 3.2 0.00 0.00 0.00 1018.9
20260901061220 -17 215 1.6 3.2 0.00 0.00 0.00 1018.9
20260901060716 -17 215 1.6 3.2 0.00 0.00 0.00 1019.1
20260901060211 -17 215 1.6 3.2 0.00 0.00 0.00 1018.8
20260901055707 -17 213 3.2 4.8 0.00 0.00 0.00 1018.8
20260901055203 -17 213 3.2 4.8 0.00 0.00 0.00 1018.8
20260901054700 -17 213 3.2 4.8 0.00 0.00 0.00 1018.7
20260901054156 -17 213 3.2 4.8 0.00 0.00 0.00 1018.6
20260901053652 -17 213 3.2 4.8 0.00 0.00 0.00 1018.7
20260901053147 -17 213 3.2 4.8 0.00 0.00 0.00 1018.7
20260901052643 -17 213 3.2 4.8 0.00 0.00 0.00 1018.7
20260901052138 -17 252 0.0 3.2 0.00 0.00 0.00 1018.6
20260901051637 -17 252 0.0 3.2 0.00 0.00 0.00 1018.7
20260901051136 -17 252 0.0 3.2 0.00 0.00 0.00 1018.5
20260901050631 -17 252 0.0 3.2 0.00 0.00 0.00 1018.6
20260901050126 -17 113 4.8 8.0 0.00 0.00 0.00 1018.6
20260901045621 -17 113 4.8 8.0 0.00 0.00 0.00 1018.5
20260901045116 -17 155 4.8 4.8 0.00 0.00 0.00 1018.4
20260901044612 -17 149 9.7 11.3 0.00 0.00 0.00 1018.4
20260901044107 -17 149 9.7 11.3 0.00 0.00 0.00 1018.4
20260901043602 -17 223 4.8 4.8 0.00 0.00 0.00 1018.4
20260901043058 -17 223 4.8 4.8 0.00 0.00 0.00 1018.4
20260901042557 -17 223 4.8 4.8 0.00 0.00 0.00 1018.4
20260901042053 -17 188 6.4 9.7 0.00 0.00 0.00 1018.3
20260901041548 -17 188 3.2 6.4 0.00 0.00 0.00 1018.2
20260901041042 -17 188 3.2 6.4 0.00 0.00 0.00 1018.3
20260901040542 -17 180 1.6 4.8 0.00 0.00 0.00 1018.3
20260901040037 -17 151 6.4 11.3 0.00 0.00 0.00 1018.2
20260901035535 -17 151 6.4 11.3 0.00 0.00 0.00 1018.2
20260901035033 -17 151 6.4 11.3 0.00 0.00 0.00 1018.1
20260901034528 -17 193 0.0 3.2 0.00 0.00 0.00 1018.1
20260901034023 -17 211 1.6 6.4 0.00 0.00 0.00 1018.1
20260901033522 -17 221 0.0 4.8 0.00 0.00 0.00 1018.0
20260901033022 -17 221 0.0 4.8 0.00 0.00 0.00 1018.0
20260901032515 -17 221 0.0 4.8 0.00 0.00 0.00 1018.1
20260901032016 -17 242 0.0 0.0 0.00 0.00 0.00 1017.9
20260901031511 -17 242 0.0 0.0 0.00 0.00 0.00 1017.8
20260901031007 -17 242 0.0 0.0 0.00 0.00 0.00 1017.6
20260901030501 -17 242 0.0 0.0 0.00 0.00 0.00 1017.8
20260901030001 -17 242 0.0 0.0 0.00 0.00 0.00 1017.6
20260901025455 -17 242 0.0 0.0 0.00 0.00 0.00 1017.5
20260901024955 -17 242 0.0 0.0 0.00 0.00 0.00 1017.4
20260901024450 -17 269 0.0 0.0 0.00 0.00 0.00 1017.4
20260901023948 -17 269 0.0 0.0 0.00 0.00 0.00 1017.4
20260901023443 -17 269 0.0 0.0 0.00 0.00 0.00 1017.2
20260901022938 -17 269 0.0 0.0 0.00 0.00 0.00 1017.2
20260901022434 -17 269 0.0 0.0 0.00 0.00 0.00 1017.1
20260901021928 -17 269 0.0 0.0 0.00 0.00 0.00 1017.1